This is the latest recevied weather packets stored in our database for station/object SR5NLK-1. If no packets are shown the sender has not sent any weather packets the latest 10 day(s).
| Time | Temp. | Humidity | Pressure | Rain* | Wind** | Luminosity | Snow |
|---|---|---|---|---|---|---|---|
| 1788004494 | 20.56° C | 84% | 1037.5 hPa | 0.51 mm | - | - | - |
| 1788004194 | 20.56° C | 86% | 1062.7 hPa | 0.51 mm | - | - | - |
| 1788003953 | 20° C | 86% | 1050.1 hPa | 0.51 mm | - | - | - |
| 1788003894 | 20° C | 86% | 1040.6 hPa | 0.51 mm | - | - | - |
| 1788003594 | 19.44° C | 88% | 1037.5 hPa | 0.51 mm | - | - | - |
| 1788003294 | 18.89° C | 88% | 1056.3 hPa | 0.51 mm | - | - | - |
| 1788002994 | 18.89° C | 88% | 1059.5 hPa | 0.51 mm | - | - | - |
| 1788002694 | 18.33° C | 88% | 1056.4 hPa | 0.51 mm | - | - | - |
| 1788002394 | 18.33° C | 88% | 1072.1 hPa | 1.02 mm | - | - | - |
| 1788002094 | 18.33° C | 87% | 1056.4 hPa | 1.52 mm | - | - | - |
| 1788001973 | 18.33° C | 87% | 1046.9 hPa | 1.52 mm | - | - | - |
| 1788001794 | 18.33° C | 87% | 1053.2 hPa | 1.52 mm | - | - | - |
| 1788001494 | 18.33° C | 87% | 1072.1 hPa | 1.52 mm | - | - | - |
| 1788001194 | 18.33° C | 86% | 1050.1 hPa | 1.52 mm | - | - | - |
| 1788000294 | 18.89° C | 84% | 1062.6 hPa | 2.03 mm | - | - | - |
| 1787999993 | 18.89° C | 83% | 1075.6 hPa | 2.03 mm | - | - | - |
| 1787999694 | 19.44° C | 83% | 1039.7 hPa | 2.03 mm | - | - | - |
| 1787999425 | 19.44° C | 84% | 1035.3 hPa | 2.03 mm | - | - | - |
| 1787999394 | 19.44° C | 84% | 1035.3 hPa | 2.03 mm | - | - | - |
| 1787999094 | 19.44° C | 84% | 1063.7 hPa | 1.52 mm | - | - | - |
| 1787998833 | 18.89° C | 84% | 1033.9 hPa | 2.03 mm | - | - | - |
| 1787998794 | 18.89° C | 84% | 1033.9 hPa | 2.03 mm | - | - | - |
| 1787998494 | 18.89° C | 84% | 1074.1 hPa | 1.52 mm | - | - | - |
| 1787998194 | 18.89° C | 84% | 1065.8 hPa | 1.52 mm | - | - | - |
| 1787998013 | 18.89° C | 84% | 1088 hPa | 1.02 mm | - | - | - |
* Rain latest hour (hover to see other rain measurements)
** Current wind speed in m/s (hover to see current wind gust speed)